EW4214 Weather Reports


Display with metric or nautical units.
time (UTC)temp
F
wind
direction
speed
MPH
gust
MPH
rain 1hr
in
rain 24hr
in
rain mn
in
humidity
%
barometer
mb
20260507131630 74 175 0.0 3.0 0.00 0.00 0.00 62 1008.3
20260507130631 70 172 0.0 0.0 0.00 0.00 0.00 79 1008.0
20260507125631 75 196 0.0 0.0 0.00 0.00 0.00 61 1007.7
20260507125112 74 192 0.0 0.0 0.00 0.00 0.00 61 1007.4
20260507123633 75 192 0.0 0.0 0.00 0.00 0.00 60 1007.2
20260507122630 74 178 0.0 0.0 0.00 0.00 0.00 61 1007.2
20260507122533 74 181 0.0 0.0 0.00 0.00 0.00 61 1006.8
20260507121818 74 184 0.0 0.0 0.00 0.00 0.00 61 1007.0
20260507115631 74 168 0.0 1.0 0.00 0.00 0.00 60 1006.6
20260507114630 74 177 0.0 2.0 0.00 0.00 0.00 60 1006.5
20260507113631 74 173 0.0 2.0 0.00 0.00 0.00 59 1006.7
20260507112630 74 169 1.0 4.0 0.00 0.00 0.00 60 1006.6
20260507111631 74 177 1.0 4.0 0.00 0.00 0.00 59 1006.8
20260507111117 74 148 1.0 6.0 0.00 0.00 0.00 60 1006.7
20260507105632 74 157 1.0 6.0 0.00 0.00 0.00 59 1006.7
20260507104632 73 174 0.0 3.0 0.00 0.00 0.00 60 1006.5
20260507103630 75 154 0.0 3.0 0.00 0.00 0.00 59 1006.3
20260507102631 74 153 0.0 2.0 0.00 0.00 0.00 59 1006.3
20260507101631 75 176 0.0 2.0 0.00 0.00 0.00 59 1006.2
20260507101111 74 174 0.0 2.0 0.00 0.00 0.00 59 1005.7
20260507095631 75 189 0.0 2.0 0.00 0.00 0.00 57 1005.3
20260507094630 75 175 0.0 4.0 0.00 0.00 0.00 57 1005.7
20260507093632 75 180 0.0 6.0 0.00 0.00 0.00 54 1005.5
20260507092632 75 186 0.0 8.0 0.00 0.00 0.00 54 1005.5
20260507092110 75 134 1.0 11.0 0.00 0.00 0.00 55 1006.1
20260507090631 82 113 7.0 14.0 0.00 0.00 0.00 48 1006.4
20260507090331 86 106 6.0 9.0 0.00 0.00 0.00 42 1006.0
20260507090112 89 139 1.0 4.0 0.00 0.00 0.00 42 1005.8
20260507083753 90 100 1.0 7.0 0.00 0.00 0.00 40 1005.3
20260507082755 90 151 2.0 6.0 0.00 0.00 0.00 39 1005.6
20260507081750 89 181 0.0 4.0 0.00 0.00 0.00 40 1005.2
20260507080749 88 176 1.0 4.0 0.00 0.00 0.00 40 1005.3
20260507075743 87 206 1.0 3.0 0.00 0.00 0.00 42 1005.6
20260507074807 85 205 0.0 2.0 0.00 0.00 0.00 44 1004.9
20260507074741 86 92 1.0 3.0 0.00 0.00 0.00 43 1005.7
20260507072734 85 191 0.0 1.0 0.00 0.00 0.00 44 1005.3
20260507071732 84 205 0.0 1.0 0.00 0.00 0.00 43 1005.7
20260507070727 84 202 0.0 3.0 0.00 0.00 0.00 43 1006.0
20260507065725 84 204 1.0 2.0 0.00 0.00 0.00 43 1006.2
20260507065232 83 217 1.0 4.0 0.00 0.00 0.00 43 1006.4
20260507063715 84 225 2.0 3.0 0.00 0.00 0.00 43 1006.6
20260507062713 83 233 2.0 3.0 0.00 0.00 0.00 43 1007.0
20260507061711 83 237 1.0 3.0 0.00 0.00 0.00 43 1007.4
20260507060710 83 215 1.0 4.0 0.00 0.00 0.00 44 1007.8
20260507055707 84 208 0.0 4.0 0.00 0.00 0.00 43 1007.9
20260507054701 83 212 1.0 2.0 0.00 0.00 0.00 43 1007.8
20260507054201 84 238 0.0 6.0 0.00 0.00 0.00 43 1008.2
20260507052653 84 233 4.0 6.0 0.00 0.00 0.00 44 1008.3
20260507051647 85 149 2.0 8.0 0.00 0.00 0.00 45 1008.8
20260507050643 86 277 3.0 9.0 0.00 0.00 0.00 43 1008.6
20260507045641 86 199 1.0 4.0 0.00 0.00 0.00 45 1008.4
20260507044637 86 176 1.0 7.0 0.00 0.00 0.00 44 1008.5
20260507043632 86 194 1.0 4.0 0.00 0.00 0.00 44 1008.6
20260507042634 88 222 0.0 4.0 0.00 0.00 0.00 43 1008.6
20260507041630 90 186 0.0 3.0 0.00 0.00 0.00 41 1008.6
20260507040623 90 174 0.0 6.0 0.00 0.00 0.00 42 1008.7
20260507035619 90 197 0.0 2.0 0.00 0.00 0.00 42 1008.7
20260507034614 89 182 0.0 2.0 0.00 0.00 0.00 43 1008.9
20260507034111 88 195 0.0 2.0 0.00 0.00 0.00 44 1009.1
20260507032609 88 205 1.0 4.0 0.00 0.00 0.00 44 1009.1
20260507031607 88 322 3.0 6.0 0.00 0.00 0.00 44 1009.1
20260507030605 87 142 0.0 3.0 0.00 0.00 0.00 45 1009.3
20260507024603 86 195 0.0 3.0 0.00 0.00 0.00 47 1009.6
20260507023604 85 4 3.0 3.0 0.00 0.00 0.00 47 1009.6
20260507022605 85 180 0.0 3.0 0.00 0.00 0.00 49 1009.6
20260507021604 84 254 2.0 2.0 0.00 0.00 0.00 49 1009.7
20260507021046 84 191 0.0 2.0 0.00 0.00 0.00 49 1009.8
20260507015603 83 168 0.0 3.0 0.00 0.00 0.00 51 1009.7
20260507014558 79 179 0.0 2.0 0.00 0.00 0.00 64 1009.4
20260507013558 82 151 1.0 3.0 0.00 0.00 0.00 52 1009.3
20260507012558 81 175 0.0 3.0 0.00 0.00 0.00 53 1009.3
20260507011555 80 175 0.0 3.0 0.00 0.00 0.00 55 1009.4
20260507010555 79 165 0.0 2.0 0.00 0.00 0.00 56 1009.5
20260507005552 78 143 0.0 2.0 0.00 0.00 0.00 58 1009.4
20260507005030 77 172 0.0 2.0 0.00 0.00 0.00 59 1009.3
20260507003550 75 181 0.0 2.0 0.00 0.00 0.00 66 1009.0
20260507002551 74 185 0.0 3.0 0.00 0.00 0.00 70 1009.0
20260507001549 74 128 2.0 3.0 0.00 0.00 0.00 67 1008.9
20260507000551 73 146 0.0 3.0 0.00 0.00 0.00 71 1008.9
20260506235548 73 175 0.0 1.0 0.00 0.00 0.00 69 1008.7
20260506234553 72 184 0.0 0.0 0.00 0.00 0.00 72 1008.8
20260506233552 72 168 0.0 0.0 0.00 0.00 0.00 69 1008.6
20260506233029 72 178 0.0 0.0 0.00 0.00 0.00 73 1008.5
20260506231549 72 177 0.0 0.0 0.00 0.00 0.00 70 1008.4
20260506230550 71 181 0.0 0.0 0.00 0.00 0.00 73 1008.4
20260506230038 72 175 0.0 0.0 0.00 0.00 0.00 70 1008.2
20260506224549 71 177 0.0 0.0 0.00 0.00 0.00 73 1008.3
20260506223548 72 177 0.0 0.0 0.00 0.00 0.00 70 1008.2
20260506223033 71 175 0.0 0.0 0.00 0.00 0.00 73 1008.1
20260506221550 72 175 0.0 0.0 0.00 0.00 0.00 69 1008.0
20260506220549 71 174 0.0 0.0 0.00 0.00 0.00 73 1007.8
20260506215544 61 166 1.0 2.0 0.00 0.00 0.00 100 1007.8
20260506215024 76 174 0.0 0.0 0.00 0.00 0.00 57 1007.7
20260506213538 61 174 0.0 1.0 0.00 0.00 0.00 100 1007.5
20260506212538 61 174 0.0 2.0 0.00 0.00 0.00 100 1007.6
20260506211538 76 174 0.0 0.0 0.00 0.00 0.00 58 1007.5
20260506210536 61 177 0.0 0.0 0.00 0.00 0.00 100 1007.6
20260506210026 76 193 0.0 1.0 0.00 0.00 0.00 58 1007.6
20260506205454 61 173 0.0 1.0 0.00 0.00 0.00 100 1007.4
20260506203538 77 175 0.0 2.0 0.00 0.00 0.00 58 1007.2
20260506202536 61 165 0.0 1.0 0.00 0.00 0.00 100 1007.2
20260506201538 76 173 0.0 0.0 0.00 0.00 0.00 58 1007.2
20260506200537 61 175 0.0 0.0 0.00 0.00 0.00 100 1007.3
20260506195538 77 176 0.0 0.0 0.00 0.00 0.00 58 1007.2
20260506194536 61 175 0.0 0.0 0.00 0.00 0.00 100 1007.2
20260506194025 77 175 0.0 1.0 0.00 0.00 0.00 57 1007.4
20260506193024 73 173 0.0 2.0 0.00 0.00 0.00 72 1007.4
20260506191711 77 176 0.0 2.0 0.00 0.00 0.00 56 1007.3
20260506190706 78 172 0.0 2.0 0.00 0.00 0.00 56 1007.3
20260506185706 62 173 0.0 0.0 0.00 0.00 0.00 100 1007.4
20260506185231 78 169 0.0 0.0 0.00 0.00 0.00 56 1007.4
20260506183655 62 175 0.0 1.0 0.00 0.00 0.00 100 1007.6
20260506182655 73 172 0.0 1.0 0.00 0.00 0.00 69 1007.6
20260506181649 63 171 0.0 1.0 0.00 0.00 0.00 100 1007.7
20260506180646 74 172 0.0 0.0 0.00 0.00 0.00 68 1007.6
20260506175650 63 172 0.0 0.0 0.00 0.00 0.00 100 1007.8
20260506175424 63 170 0.0 2.0 0.00 0.00 0.00 100 1008.0
20260506175417 74 173 0.0 1.0 0.00 0.00 0.00 67 1007.8
20260506173151 74 174 0.0 0.0 0.00 0.00 0.00 66 1008.0
20260506171628 64 173 0.0 0.0 0.00 0.00 0.00 100 1008.1
20260506170625 79 172 0.0 1.0 0.00 0.00 0.00 52 1008.3
20260506165622 64 173 0.0 1.0 0.00 0.00 0.00 100 1008.2
20260506165129 79 179 0.0 1.0 0.00 0.00 0.00 52 1008.2
20260506163626 64 184 0.0 0.0 0.00 0.00 0.00 100 1008.3
20260506162615 79 184 0.0 1.0 0.00 0.00 0.00 52 1008.3
20260506161611 63 175 0.0 1.0 0.00 0.00 0.00 100 1008.3
20260506160604 79 174 0.0 2.0 0.00 0.00 0.00 52 1008.4
20260506155605 79 173 0.0 3.0 0.00 0.00 0.00 52 1008.4
20260506154601 63 168 0.0 1.0 0.00 0.00 0.00 100 1008.4
20260506153556 79 187 0.0 0.0 0.00 0.00 0.00 52 1008.4
20260506152555 64 182 0.0 1.0 0.00 0.00 0.00 100 1008.2
20260506151550 79 174 0.0 2.0 0.00 0.00 0.00 52 1008.2
20260506150541 63 167 1.0 3.0 0.00 0.00 0.00 100 1008.5
20260506145544 74 174 0.0 1.0 0.00 0.00 0.00 65 1008.4
20260506144534 63 175 0.0 2.0 0.00 0.00 0.00 100 1008.2
20260506143532 74 181 0.0 2.0 0.00 0.00 0.00 65 1008.1
20260506142531 63 184 0.0 2.0 0.00 0.00 0.00 100 1008.0
20260506141530 74 168 1.0 3.0 0.00 0.00 0.00 65 1007.7
20260506140531 64 205 1.0 2.0 0.00 0.00 0.00 100 1007.9
20260506140024 75 174 0.0 1.0 0.00 0.00 0.00 65 1007.8
20260506134532 64 176 0.0 2.0 0.00 0.00 0.00 100 1007.8
20260506134011 74 199 1.0 4.0 0.00 0.00 0.00 66 1007.6
20260506133023 64 106 2.0 4.0 0.00 0.00 0.00 100 1007.6